IRIDIUM 23 [S]

Last updated on Fri Jul 15 2016 18:38:28 GMT+0100 (British Summer Time)

1 24906U 97043D 16197.05624918 .00000017 00000-0 -81894-6 0 9998 2 24906 86.3951 36.3802 0002247 81.2117 75.7023 14.34214656989514
UTC large
Height (km)
Speed (km/s)
/
Latitude / Longitude
Inclination (degrees)
Orbital Period (minutes)
Azimuth
Elevation
Range (km)
Doppler Factor

Next 0 passes for location: London (51.5072 / 0.1276)

Sorry there are no passes over London.